GFSSW_850_rhum_114.txt.gz
RH
75 86 91 86 88 90 98 94 79 55 54 97 99 99 95 87 59 47 48 40 40 50 45 38 40 45 42 46 51 56 75 78 64 76 51 47 49 39 39 37 33 29 28 35 30
92 87 95 97 92 90 89 86 90 84 55 48 100 94 97 93 65 52 51 43 47 51 38 37 45 43 41 53 54 57 66 60 58 54 50 52 51 48 45 42 41 36 29 27 26
92 98 94 96 95 95 93 83 81 82 77 26 70 97 100 92 66 57 55 51 81 61 48 40 42 37 50 50 58 70 65 63 53 49 53 53 50 46 46 50 39 36 33 30 26
99 98 86 83 79 82 84 85 83 74 75 38 95 100 98 88 78 74 54 91 90 56 43 50 47 48 62 58 63 60 60 62 58 55 62 64 57 58 51 46 35 29 32 33 32
84 83 79 83 76 65 77 82 89 84 66 61 87 100 100 87 82 88 72 99 80 59 53 52 50 56 67 69 64 68 67 65 62 60 60 58 66 64 58 35 34 35 39 38 34
86 83 84 76 69 62 72 79 91 86 62 68 98 99 95 88 97 100 94 86 56 56 60 54 55 58 71 73 69 74 75 72 64 64 66 70 66 63 50 34 35 39 38 38 38
83 75 74 83 69 64 79 88 92 86 51 58 91 95 100 95 98 99 85 72 66 57 61 63 63 58 64 71 72 75 84 78 68 68 69 67 72 77 33 40 41 40 41 36 37
80 89 94 90 81 68 93 88 82 68 45 47 74 98 100 90 100 84 89 63 70 67 62 67 66 66 69 68 66 84 75 79 52 70 60 56 75 50 38 46 48 44 40 40 43
80 93 94 89 79 80 89 82 67 58 79 55 94 95 100 97 87 88 78 69 69 70 64 68 67 64 64 73 77 79 91 90 79 60 65 66 79 63 50 51 56 53 46 43 49
87 86 95 95 92 87 85 97 84 72 95 77 100 89 100 100 96 76 67 66 73 70 71 67 66 73 70 88 83 83 90 81 89 70 66 79 79 63 57 59 60 58 54 51 54
78 80 87 89 91 84 92 99 90 88 97 99 94 97 99 98 80 71 70 73 79 80 92 82 89 96 81 76 71 74 69 70 64 64 75 82 80 70 60 63 70 67 68 61 57
81 87 90 78 89 89 89 95 95 96 99 100 100 99 100 97 96 73 73 72 82 90 89 86 91 74 71 75 83 82 84 83 68 64 77 78 78 65 63 66 67 69 73 68 60
76 78 78 92 98 92 97 97 98 98 98 100 99 98 96 90 89 76 69 73 74 76 82 82 62 68 76 84 95 92 95 84 74 61 70 80 89 76 64 74 71 71 71 66 59
62 84 74 72 77 96 97 96 97 91 98 100 97 96 84 65 76 67 66 67 71 70 72 75 64 66 73 84 82 97 71 70 63 77 95 70 92 67 84 87 76 75 76 71 65
65 77 78 69 75 88 84 92 87 86 90 94 96 90 75 68 66 65 62 64 75 68 69 67 66 77 87 81 76 83 72 89 92 96 99 85 99 76 81 87 87 83 81 77 76
58 64 74 85 80 87 76 84 86 79 96 94 89 86 74 68 75 73 65 63 70 74 75 74 62 68 72 67 74 72 90 87 94 98 99 87 97 88 97 98 92 82 82 92 98
52 56 60 68 77 83 81 77 84 92 94 90 92 88 72 77 74 71 76 78 78 84 88 79 78 68 68 85 72 88 96 94 88 98 93 98 100 99 97 93 96 95 98 100 98
48 60 62 64 62 65 71 75 88 88 85 80 84 77 80 72 67 68 74 77 73 78 92 88 81 80 82 79 80 88 96 98 98 98 94 93 98 97 93 87 95 99 100 88 89
35 53 55 58 59 59 62 94 99 85 82 85 84 75 78 73 69 70 72 74 65 85 87 76 81 72 81 73 77 91 100 94 100 94 98 98 98 90 84 93 89 95 99 99 89
32 45 48 50 52 53 81 91 96 84 80 75 76 59 70 64 63 72 72 70 81 74 79 82 95 71 78 79 81 90 90 100 100 97 96 97 98 98 98 99 94 94 98 99 95
34 44 42 42 47 57 96 94 87 77 76 84 73 53 59 79 80 90 92 81 76 82 85 86 96 80 87 94 94 98 100 100 99 97 96 94 98 100 100 100 99 94 97 99 99
39 81 46 43 66 88 98 89 82 77 73 72 75 54 52 93 96 95 96 86 74 77 87 83 89 96 76 63 66 85 94 90 95 98 88 95 99 94 96 93 87 85 86 80 72
38 47 50 44 89 95 79 73 76 77 77 74 72 68 53 67 75 86 86 64 70 84 85 80 89 95 58 57 59 70 71 68 74 80 91 88 99 82 87 87 74 74 76 76 75
43 78 50 61 83 84 90 86 79 67 70 69 75 64 64 71 67 71 73 59 69 77 74 69 78 77 88 76 74 80 71 71 78 91 91 90 98 87 77 72 73 75 78 77 75
55 89 83 95 82 82 79 75 80 83 70 67 68 80 82 74 73 79 74 68 59 59 69 61 75 82 70 66 65 68 72 74 78 72 69 79 84 73 72 77 74 74 76 73 72
60 73 76 83 80 72 79 79 83 82 77 78 78 82 74 80 80 84 79 72 67 66 62 70 80 74 64 54 64 60 59 64 73 82 87 84 76 65 63 67 71 73 74 74 73
58 63 58 84 82 76 78 74 76 78 68 71 76 78 70 68 69 68 70 69 72 73 71 71 79 82 67 68 61 55 52 62 64 64 77 81 66 72 71 72 70 69 71 69 71

GFSSW_850_rhum_117.txt.gz
RH
77 98 85 90 90 88 93 96 92 93 93 68 100 100 100 96 76 60 52 45 45 49 40 35 39 35 31 44 52 53 58 57 51 63 44 48 45 41 40 38 33 29 28 26 26
72 99 98 99 99 96 91 89 87 87 81 51 80 98 100 99 82 63 56 41 58 52 42 37 39 42 40 51 51 55 48 46 53 58 50 53 52 48 43 42 39 33 27 26 25
75 99 96 100 98 98 97 98 78 81 77 66 52 93 98 99 75 63 59 46 95 52 39 37 38 35 48 50 59 65 52 57 53 53 56 55 52 47 49 46 37 30 20 23 23
78 93 96 95 94 93 96 95 88 81 67 76 45 90 99 92 86 89 61 86 100 56 45 44 39 39 59 62 63 51 60 64 58 57 63 62 58 59 51 40 29 33 33 34 26
83 85 77 86 91 75 70 84 88 95 73 71 53 99 85 88 94 74 94 98 73 53 47 43 40 46 65 70 62 63 69 66 61 59 59 57 64 58 59 28 32 33 38 38 32
73 73 78 80 84 63 54 67 82 92 83 66 66 100 95 89 84 85 100 84 58 52 51 49 45 45 67 74 63 74 76 73 61 62 65 66 62 65 40 30 33 37 38 38 39
76 81 90 93 83 65 62 74 79 83 84 58 91 99 95 93 92 82 96 55 55 47 47 52 52 50 61 74 72 74 71 69 64 67 67 70 72 76 28 44 42 37 38 40 34
88 91 80 87 87 77 91 80 77 79 71 50 98 92 95 98 99 96 63 65 63 59 54 63 60 58 64 67 65 77 68 57 49 64 61 58 60 48 42 50 48 43 39 39 40
84 98 87 75 73 70 76 81 72 63 77 67 84 85 99 100 95 73 55 68 66 62 66 67 58 63 65 74 66 72 71 83 73 61 67 68 71 58 46 51 55 57 50 47 47
75 87 91 93 80 89 92 75 100 83 90 92 93 89 100 100 90 72 72 62 65 65 64 62 65 78 76 76 49 82 87 76 80 65 64 73 76 61 59 58 59 59 61 58 55
80 78 82 87 86 91 73 74 70 82 77 80 89 99 100 98 92 81 70 68 70 70 90 79 82 81 72 72 65 76 73 78 67 58 72 77 76 62 56 59 62 66 67 65 63
69 79 88 82 87 92 84 92 97 95 98 100 100 98 98 97 89 74 72 73 78 96 84 78 84 70 68 74 79 84 91 86 69 64 74 70 67 58 60 64 69 69 70 68 67
66 72 78 91 97 88 89 97 94 95 98 100 99 99 98 90 88 74 69 74 74 78 81 75 70 71 72 82 88 90 90 85 77 67 62 72 77 68 57 73 69 64 68 74 75
60 69 76 75 82 96 96 99 96 95 96 100 97 93 89 78 75 72 70 66 70 68 75 73 62 67 78 82 82 90 74 74 77 86 93 66 92 71 79 74 70 80 83 80 76
63 59 58 72 82 85 86 85 85 84 91 93 90 78 67 67 65 65 66 64 76 70 66 56 68 80 87 79 75 76 71 85 90 96 99 81 98 75 77 79 90 85 80 89 93
58 54 55 46 53 60 64 71 70 79 96 96 83 83 71 73 78 69 62 62 71 73 74 72 61 70 68 66 74 68 85 86 91 82 98 79 91 83 98 100 94 84 95 98 98
58 58 53 53 56 64 67 65 84 93 91 84 86 83 72 76 74 72 74 72 73 80 86 75 78 69 67 80 74 89 94 96 85 97 90 84 100 94 96 94 94 97 96 99 100
50 54 56 60 58 54 56 74 88 82 86 80 84 77 78 68 64 66 72 75 74 79 92 95 76 77 80 79 70 84 87 96 97 92 88 88 95 94 80 90 93 94 97 98 100
44 52 55 56 56 56 54 91 95 78 84 81 79 71 76 71 67 68 70 74 64 80 83 77 87 70 83 72 71 94 99 85 100 91 96 90 96 92 77 92 94 96 96 99 100
40 43 46 49 50 51 78 91 96 83 82 75 70 60 69 67 64 74 73 64 72 73 76 84 89 68 76 79 79 91 86 100 99 98 92 86 97 98 98 99 97 96 97 96 94
36 40 46 42 43 57 96 97 86 78 76 79 74 56 66 90 88 95 87 71 76 83 83 91 96 78 85 90 98 98 100 100 99 99 94 92 93 99 100 98 97 92 92 94 86
37 75 42 42 64 85 96 86 82 76 75 71 75 61 70 89 84 95 95 80 75 77 87 84 90 98 82 66 73 87 94 92 95 96 92 93 98 86 87 92 88 88 84 76 78
38 43 46 38 86 94 75 74 76 76 76 72 71 67 58 72 75 84 84 67 74 82 85 80 91 96 62 61 60 73 76 77 73 82 88 85 95 82 79 82 79 75 77 76 74
41 72 45 53 78 79 83 79 75 69 72 70 74 68 66 72 69 73 74 61 72 77 77 75 82 80 88 70 71 76 69 72 80 95 82 83 96 96 85 79 70 75 78 79 77
50 84 72 86 80 80 77 76 80 80 70 68 67 80 80 77 70 78 75 72 63 61 75 69 82 83 77 72 67 71 68 77 85 75 74 77 95 78 73 69 71 73 77 79 78
56 67 73 80 82 69 74 78 80 76 78 71 72 77 70 74 74 78 77 74 69 68 64 72 82 75 73 59 65 71 61 72 74 80 82 83 81 64 61 64 71 72 75 75 74
58 60 53 87 81 73 75 78 75 79 66 72 74 78 68 65 66 66 68 69 71 75 75 74 81 85 77 68 64 57 57 67 67 68 76 80 64 70 71 73 68 67 71 72 71

GFSSW_850_rhum_120.txt.gz
RH
83 68 74 78 99 94 97 92 93 84 85 62 91 99 100 92 74 61 52 49 34 32 34 34 36 31 26 46 50 32 19 20 21 27 30 37 30 37 40 34 30 27 26 26 25
80 71 89 99 99 97 95 91 91 91 84 58 85 99 99 97 80 70 57 43 44 35 34 44 43 36 38 50 50 28 22 21 33 37 33 38 38 36 29 26 25 27 27 27 28
83 85 94 85 91 99 100 98 88 91 78 73 54 96 98 94 74 79 56 73 82 43 34 32 37 40 42 45 48 41 26 33 40 44 50 41 39 38 30 27 22 19 18 21 29
85 86 86 98 96 99 99 99 91 84 70 78 41 80 100 98 87 93 79 95 80 43 36 36 39 39 36 36 50 38 48 46 47 54 50 40 41 37 35 25 23 26 29 32 33
91 84 80 90 84 86 90 93 93 90 73 74 64 79 85 94 96 75 93 98 89 50 45 45 38 39 36 43 45 33 43 52 50 53 50 47 43 38 36 34 33 34 39 40 41
98 97 81 78 73 65 60 87 94 95 67 67 66 88 89 92 99 100 98 87 57 46 45 42 44 42 47 48 38 50 52 49 51 49 52 48 36 52 29 37 39 41 42 41 42
91 76 78 89 73 64 68 78 77 86 59 85 96 100 90 96 88 100 78 63 56 47 42 36 34 47 52 53 65 58 45 42 47 53 48 60 43 48 36 38 40 36 35 38 41
90 83 83 90 77 82 76 84 82 79 52 95 97 90 98 96 96 92 62 54 52 48 43 52 47 56 58 59 51 47 43 35 40 47 54 51 28 28 35 40 36 33 36 40 40
79 79 74 82 66 82 77 83 69 63 62 88 90 89 99 100 93 73 71 71 59 58 60 56 49 61 58 46 42 41 38 53 42 48 49 54 40 34 37 36 37 36 35 37 41
74 83 78 98 90 90 92 78 71 90 96 78 78 84 100 99 85 68 68 70 72 70 63 61 64 55 49 49 37 38 44 41 43 40 45 46 47 37 40 40 40 39 41 43 47
77 81 82 98 100 100 82 70 71 81 82 93 92 100 98 98 91 77 75 67 69 65 59 67 62 75 51 49 53 50 51 49 40 39 51 47 48 41 37 39 40 42 47 49 56
76 71 88 82 82 81 70 96 98 93 96 100 100 98 98 97 89 74 66 64 63 68 58 55 63 54 55 58 60 62 56 44 43 46 53 47 47 41 39 41 50 55 55 57 61
74 78 92 81 75 70 75 85 92 77 97 100 98 98 98 95 87 71 73 71 58 61 53 54 60 58 56 60 63 55 54 51 59 53 47 53 52 43 40 49 53 53 61 63 67
57 68 89 83 82 80 74 86 86 84 90 100 97 97 96 78 68 71 69 66 57 57 55 51 56 59 62 64 61 60 51 58 65 71 78 55 84 51 54 51 58 67 70 71 83
55 57 70 75 76 74 69 68 73 69 84 96 92 82 75 70 66 66 64 62 60 61 55 57 61 67 69 61 58 53 55 59 64 73 92 66 97 56 61 79 92 84 83 95 90
61 53 53 61 58 53 63 70 63 87 92 94 70 67 61 65 67 66 63 61 68 57 59 53 58 57 50 51 58 50 61 63 70 83 94 63 81 79 94 96 95 89 93 98 100
56 56 57 59 57 59 62 60 90 83 79 69 69 62 57 57 58 58 57 46 62 77 75 58 61 58 57 61 62 69 79 82 82 92 74 66 92 92 79 84 95 95 96 98 98
53 58 59 57 57 55 58 60 77 69 75 70 71 64 59 52 49 55 55 58 56 60 70 76 69 62 62 62 62 64 71 88 86 72 69 66 88 100 67 87 100 99 100 99 99
44 52 55 51 48 47 60 89 81 70 68 66 64 53 62 60 54 57 56 58 58 57 70 70 75 58 66 60 65 91 96 80 100 83 89 72 99 77 72 93 96 96 97 97 96
38 43 51 45 43 44 69 89 79 73 70 67 53 51 54 56 54 58 63 60 66 65 58 67 86 57 63 72 74 91 85 100 99 91 80 69 89 99 100 99 95 90 92 91 92
36 42 44 45 42 63 97 94 76 76 76 69 54 56 66 75 69 72 69 59 66 73 66 76 91 69 75 82 86 96 99 96 96 96 76 69 83 98 100 95 92 69 72 77 92
38 67 44 38 71 82 82 74 79 69 76 66 64 54 66 72 70 77 74 64 65 70 81 72 78 89 67 57 60 71 80 69 81 88 78 72 79 76 71 78 81 77 70 74 81
36 41 38 35 79 77 69 68 71 66 67 66 64 59 52 67 70 70 69 64 70 71 70 66 82 84 56 59 60 70 65 65 60 69 79 71 71 62 64 71 74 65 68 74 74
37 73 41 45 67 60 68 70 66 70 67 68 63 62 58 61 60 62 59 59 73 72 77 72 71 67 61 52 57 64 55 54 63 82 62 56 78 70 62 61 59 64 71 76 75
42 72 67 73 69 66 66 66 65 64 66 66 58 64 65 57 57 56 61 57 62 64 71 69 81 76 60 52 54 59 54 53 78 64 68 51 63 58 54 49 50 61 72 77 76
53 61 62 76 76 62 66 62 64 67 65 59 57 61 60 57 53 55 62 59 54 56 58 61 77 67 61 51 59 61 47 49 58 58 60 57 57 42 43 49 53 60 68 73 73
50 51 50 85 71 57 50 59 62 70 65 67 62 64 58 55 59 59 62 61 61 62 60 62 67 70 65 48 48 46 38 44 52 53 49 59 43 41 48 51 51 55 63 67 69

GFSSW_850_rhum_123.txt.gz
RH
68 79 71 93 99 84 99 100 97 86 89 85 80 90 99 90 71 52 62 54 64 26 30 41 41 36 38 46 48 37 20 20 16 19 23 26 22 28 30 26 21 19 17 20 26
71 77 81 95 94 94 99 97 96 86 76 62 72 96 100 91 87 71 65 44 36 31 43 37 36 33 31 38 36 22 21 17 23 25 23 27 28 26 23 19 19 19 20 20 21
93 82 80 94 88 97 99 91 96 92 79 51 82 81 100 96 72 76 52 70 55 40 41 34 32 29 31 31 32 26 25 24 27 33 37 29 28 26 24 21 17 16 16 15 18
99 84 86 86 94 91 100 98 97 80 80 45 83 95 96 92 92 90 85 94 47 53 43 38 32 28 28 28 32 29 32 32 35 40 39 30 28 26 25 22 18 21 21 24 25
98 88 84 79 83 92 100 96 94 76 68 56 80 100 96 84 97 71 97 93 47 50 41 34 28 28 26 29 30 24 30 38 36 39 36 34 32 28 27 24 25 24 25 28 31
87 83 86 77 72 86 96 91 97 72 60 65 80 97 85 94 87 84 100 89 60 53 48 39 33 30 31 32 28 31 35 33 36 36 37 37 31 31 24 27 27 29 30 31 32
75 84 87 74 67 87 90 94 81 68 69 73 91 72 87 100 98 99 74 70 53 53 50 46 38 32 35 36 43 39 35 33 33 36 36 45 31 31 26 26 28 28 27 28 29
86 64 74 84 73 82 94 88 67 79 92 99 97 81 98 100 93 69 68 65 60 44 41 56 50 48 42 43 38 35 33 33 32 39 43 43 26 19 26 26 25 23 23 23 25
80 69 74 94 70 82 88 69 53 88 92 97 90 88 99 99 84 74 61 62 64 62 57 54 54 50 45 37 35 33 36 43 33 37 36 44 34 21 26 26 24 25 25 26 28
76 76 86 97 90 83 80 85 90 89 84 78 78 78 99 99 83 79 67 61 61 60 53 50 50 41 34 46 40 26 34 28 30 33 38 38 38 28 26 27 28 28 28 30 34
81 82 86 88 89 90 92 81 75 93 97 100 100 99 99 98 85 77 63 57 55 50 46 49 58 77 37 37 37 32 32 31 26 26 40 36 35 31 27 28 29 32 38 40 44
78 77 78 71 67 65 78 91 98 94 96 100 99 98 96 92 89 66 64 50 49 53 44 49 58 46 44 46 45 43 36 31 30 38 42 41 42 34 32 34 40 44 45 49 52
80 78 72 69 66 71 73 80 78 92 97 99 98 98 97 88 72 68 62 56 43 44 37 50 47 46 44 47 45 38 38 39 46 44 36 45 42 38 35 39 46 59 59 60 63
75 78 75 69 67 64 66 74 77 84 80 99 90 95 87 82 60 68 68 57 44 44 38 44 49 46 47 46 45 43 42 46 52 59 73 50 80 46 41 43 48 64 70 85 91
64 72 77 71 62 57 59 63 63 72 78 86 77 75 69 60 58 56 64 49 46 44 46 49 51 55 54 50 48 47 46 50 54 62 88 53 87 55 54 60 58 68 82 91 94
55 60 72 79 65 54 59 57 53 89 90 91 57 54 49 50 53 55 51 51 55 42 41 43 48 48 44 40 46 44 53 50 58 68 86 52 71 66 86 72 70 85 95 95 94
57 60 59 58 78 58 56 70 89 83 66 60 50 41 37 42 40 42 44 43 55 84 62 52 52 46 49 54 53 58 57 74 79 84 69 55 72 78 67 65 91 96 92 97 96
51 56 57 60 57 54 52 51 81 59 56 52 50 43 44 43 44 49 50 51 49 48 54 65 78 54 52 54 57 55 58 82 81 73 69 50 82 85 61 79 88 89 92 93 93
42 48 61 52 50 56 59 88 70 54 53 48 52 40 52 49 47 48 48 50 50 49 61 57 67 49 52 50 55 83 79 69 100 68 82 63 99 64 62 68 71 71 70 75 83
35 49 48 53 58 55 63 69 68 57 55 53 43 41 44 46 46 47 51 50 56 56 48 58 76 50 57 62 63 75 86 98 100 90 84 71 77 98 100 92 68 68 63 66 76
32 39 36 37 56 58 95 76 63 64 64 58 48 49 51 54 52 54 54 51 50 58 54 63 79 67 66 76 72 97 97 98 89 73 85 65 71 94 95 79 71 63 64 64 72
40 54 33 45 72 66 73 60 65 61 66 56 54 47 54 55 55 60 62 56 56 61 67 62 67 82 62 47 50 55 64 72 98 97 82 76 76 58 60 62 69 70 58 63 65
48 48 35 37 72 65 60 60 61 57 56 55 53 50 47 55 59 56 56 56 59 61 60 58 70 78 61 52 50 64 54 56 56 65 78 85 67 53 54 61 64 61 55 60 64
46 66 55 53 59 46 58 59 58 66 56 56 51 52 51 51 49 51 50 52 61 62 71 67 64 66 68 48 48 55 48 50 56 82 65 54 44 51 52 53 49 51 54 59 65
38 54 56 66 49 47 52 51 53 55 58 56 50 50 48 47 45 44 44 44 52 65 62 62 76 75 59 49 44 46 48 45 61 62 63 44 45 38 41 44 42 45 52 58 61
49 48 59 54 59 52 57 51 48 52 52 48 51 45 45 45 36 39 45 43 39 52 52 54 72 57 59 34 44 52 45 45 43 42 52 50 49 33 33 36 38 43 49 56 60
37 42 54 64 53 47 36 40 47 53 53 54 48 48 46 43 47 48 49 46 45 47 48 52 61 60 61 38 43 37 26 32 35 37 44 52 38 28 36 36 38 42 47 53 56

GFSSW_850_rhum_126.txt.gz
RH
90 95 94 82 94 97 91 97 96 93 82 82 88 88 85 88 68 42 72 59 48 22 31 40 36 37 41 50 47 31 38 30 19 19 30 24 22 27 26 26 21 18 17 20 22
87 94 98 83 96 100 86 98 89 95 81 88 99 93 90 96 65 74 68 56 43 33 43 38 34 33 32 38 36 31 34 33 27 30 30 27 26 26 24 19 19 18 18 18 19
95 96 93 89 95 99 98 99 88 80 69 69 91 94 91 90 78 85 56 53 34 42 38 32 32 27 30 32 29 26 37 26 30 39 36 29 27 24 24 26 18 17 17 17 17
96 86 94 96 90 99 98 98 89 82 61 58 85 85 100 94 94 92 87 88 44 45 38 32 29 28 34 34 30 31 29 32 35 41 37 31 28 27 24 25 20 21 22 23 23
88 84 80 97 95 100 98 80 65 71 68 85 85 78 99 94 99 97 93 75 42 45 38 33 29 26 31 29 28 26 32 34 34 37 35 33 32 31 28 26 24 23 24 24 25
84 72 96 97 100 92 89 67 57 60 74 98 87 100 89 94 97 100 95 68 52 44 39 32 29 29 29 30 30 28 33 31 32 34 34 36 36 30 25 24 26 26 27 29 30
74 84 74 89 100 93 77 76 75 62 83 95 81 87 88 100 98 92 74 62 55 48 46 39 33 32 31 34 37 34 35 38 35 33 37 45 44 39 24 24 25 26 27 26 26
59 86 65 82 88 79 70 89 82 88 92 83 90 80 98 93 90 69 65 62 49 52 45 45 43 42 40 39 34 36 31 40 40 40 45 40 39 23 22 25 24 24 23 22 22
64 81 75 83 80 60 85 87 90 90 92 88 75 80 99 94 86 71 60 60 58 42 42 35 43 45 41 42 42 36 57 45 40 34 36 45 48 31 28 28 27 25 25 26 27
84 80 78 82 80 73 72 68 80 82 82 79 88 78 97 96 81 67 60 57 56 47 42 44 46 46 40 53 69 40 37 32 34 44 42 48 50 37 29 27 27 27 27 34 38
79 84 81 82 79 80 83 83 77 93 96 100 99 98 95 80 72 65 56 52 52 47 52 48 81 91 41 46 40 35 31 33 29 35 41 44 44 39 32 30 33 39 43 47 53
70 78 72 74 70 68 81 91 93 93 96 100 100 96 93 84 66 64 60 48 47 58 41 56 70 48 44 44 44 40 37 35 34 38 43 49 50 40 37 36 44 58 60 66 72
68 65 73 85 90 71 69 84 86 93 97 99 96 96 91 78 66 64 58 50 42 44 45 63 50 43 41 43 41 41 40 46 49 48 45 55 64 43 40 38 49 55 65 74 82
66 64 68 72 71 72 66 71 72 87 93 93 76 74 75 74 58 62 60 55 42 44 44 51 44 42 42 44 42 48 43 45 52 69 91 59 94 56 43 45 47 57 73 84 79
67 67 60 57 67 70 55 59 57 91 92 75 66 66 59 55 57 53 52 46 46 41 49 53 50 51 53 49 46 52 48 54 56 68 74 66 93 73 60 63 64 70 83 88 88
53 57 62 65 57 58 55 52 72 95 96 90 50 50 42 42 44 47 45 43 50 39 38 47 47 48 48 40 43 47 60 59 59 61 89 70 84 85 90 73 76 76 88 85 84
52 54 56 55 56 52 46 65 95 91 59 59 49 34 36 36 37 42 44 47 64 89 65 54 52 45 47 58 52 59 64 84 95 83 90 66 84 82 71 72 78 85 84 76 78
46 49 49 50 47 42 60 73 85 55 56 43 44 41 45 43 47 48 51 59 49 49 60 82 82 58 55 57 56 53 56 79 86 89 90 58 90 83 62 75 81 73 73 75 72
36 50 54 51 49 58 73 87 76 56 44 42 50 41 52 47 50 50 49 52 51 50 62 66 68 47 52 48 56 74 82 75 95 83 83 82 94 80 64 70 67 68 66 64 68
32 54 43 58 61 58 81 68 69 50 47 49 46 43 43 45 48 48 50 49 54 53 47 54 66 51 62 59 61 76 83 91 98 95 92 82 86 88 99 80 70 68 65 62 64
30 50 38 45 60 63 95 74 59 57 59 59 47 45 48 52 53 56 55 53 48 56 52 57 70 66 65 78 78 92 88 92 89 88 98 92 83 98 94 84 77 68 66 62 64
41 77 34 57 82 61 90 59 58 59 62 54 56 46 51 51 51 55 56 54 53 58 63 65 66 82 69 53 52 66 76 80 95 99 99 99 88 64 72 72 66 67 66 57 62
45 38 34 44 91 76 61 60 58 58 54 55 52 49 44 53 62 53 55 56 57 59 67 60 69 92 69 58 51 62 58 61 65 82 92 92 87 62 61 63 67 66 62 55 60
49 84 48 48 49 52 60 58 58 60 55 53 50 50 49 51 49 54 48 56 57 59 67 66 64 76 90 64 59 63 56 57 66 93 75 74 64 54 65 64 61 60 54 53 58
41 60 54 88 53 46 52 50 52 58 60 53 50 51 47 49 44 47 41 50 56 65 62 68 81 77 74 63 60 60 56 52 69 66 78 63 58 48 44 56 52 48 47 51 56
61 53 45 51 54 51 59 55 50 48 51 50 58 41 44 50 42 48 44 41 42 61 56 61 86 70 75 55 53 61 52 50 48 50 58 58 61 42 38 36 43 42 43 49 55
36 38 53 57 53 50 47 40 46 51 48 51 53 51 49 50 55 50 50 48 47 50 60 59 78 79 84 62 64 61 42 45 47 45 47 56 43 40 39 39 39 38 40 46 50

GFSSW_850_rhum_129.txt.gz
RH
86 100 90 93 81 89 93 88 92 79 99 89 97 92 99 82 49 38 64 62 52 30 22 23 32 41 47 49 42 30 38 34 38 32 33 26 27 26 25 21 21 20 20 21 21
98 92 90 91 93 96 94 94 97 100 94 73 86 82 99 88 56 79 70 56 39 36 34 33 38 42 39 42 36 30 44 35 36 38 34 28 27 26 22 24 20 19 17 19 21
96 92 94 94 98 97 99 96 84 83 77 68 93 98 93 87 79 92 80 59 37 41 39 35 35 30 33 35 29 29 43 31 44 39 33 31 27 25 25 28 20 21 19 18 18
91 97 96 100 92 92 87 82 77 60 63 81 99 94 99 86 97 88 67 58 45 41 37 34 29 31 36 38 30 31 33 35 39 35 34 33 31 28 26 22 18 19 20 19 17
92 96 99 98 97 87 62 71 71 68 88 98 99 99 96 83 99 87 68 43 42 38 33 31 30 30 38 33 27 28 36 34 36 35 32 33 34 34 29 19 20 22 23 24 23
80 100 90 77 81 86 75 64 96 90 92 90 91 99 83 94 97 98 54 44 41 38 36 32 31 30 32 32 34 34 34 34 33 34 34 37 38 36 24 22 23 24 24 24 24
83 82 67 67 85 80 68 72 92 90 87 88 86 81 85 100 97 78 64 54 48 42 39 34 32 31 30 39 35 33 35 39 38 36 42 41 42 49 20 24 27 27 26 26 26
74 76 69 92 90 90 98 90 85 83 91 86 83 85 98 92 77 63 59 52 48 43 37 35 34 37 39 35 35 38 37 45 41 42 46 38 26 32 27 29 28 26 25 25 25
73 72 71 82 79 86 89 91 94 85 88 82 85 84 99 96 87 61 55 43 38 33 36 36 30 38 40 49 56 40 63 44 45 42 47 43 41 32 25 28 28 28 27 29 39
79 76 76 76 77 79 86 79 78 84 86 83 88 81 97 97 71 60 58 44 36 34 31 34 44 54 50 70 73 47 40 42 39 46 42 49 58 46 34 32 31 35 52 62 61
74 78 73 62 62 53 63 76 78 93 96 100 95 94 89 78 68 58 54 50 51 50 54 49 79 82 57 50 42 40 35 36 34 39 40 46 51 44 38 37 53 62 63 62 60
68 69 65 58 62 62 62 90 90 92 97 96 92 84 79 72 62 56 52 51 49 57 46 68 74 52 47 45 45 42 40 45 44 44 47 57 57 47 42 42 61 62 64 65 60
58 64 64 61 60 57 66 71 78 94 90 88 79 74 73 65 62 56 50 44 45 59 60 71 56 42 42 44 46 44 47 55 56 58 55 59 62 51 41 58 63 71 73 71 79
59 54 55 65 60 74 58 64 71 84 91 86 68 63 60 63 57 46 49 52 44 54 53 59 47 48 45 49 48 56 51 53 61 75 88 62 89 72 50 53 70 77 74 78 84
58 58 59 57 57 55 58 56 56 86 90 62 67 57 53 57 55 39 45 42 54 52 55 55 53 53 57 57 49 62 56 58 60 73 84 76 95 76 66 65 68 82 74 77 73
50 49 53 56 55 59 53 54 76 79 97 76 57 51 46 42 42 42 43 39 46 43 52 53 46 49 51 46 43 50 62 65 65 67 95 75 86 83 85 72 75 80 73 72 70
49 47 45 51 52 46 50 72 80 92 56 59 56 35 38 41 43 50 49 54 72 77 70 58 54 47 48 59 52 62 72 90 87 97 92 72 86 80 68 77 78 80 71 67 68
42 51 40 39 41 50 66 67 83 64 66 46 48 47 52 50 50 50 55 70 52 54 74 89 76 63 57 62 68 50 55 75 91 93 91 70 84 77 69 74 72 72 68 64 64
40 40 52 60 54 59 50 88 77 63 52 51 53 52 57 50 52 53 52 59 62 59 73 75 77 54 56 55 60 71 85 78 93 86 86 88 73 71 77 83 81 71 65 64 64
36 48 40 61 61 57 75 78 70 51 49 52 56 45 52 49 54 54 56 52 62 58 53 59 70 57 64 61 68 83 80 87 94 94 87 84 85 83 95 86 77 76 68 64 64
45 52 45 50 61 53 93 75 65 56 60 65 62 49 54 57 61 65 61 56 52 62 56 55 70 71 69 79 81 91 82 89 93 95 98 100 86 79 76 76 78 74 65 64 62
45 57 36 42 64 76 93 68 61 61 61 67 60 52 56 54 59 60 60 59 54 61 70 64 64 86 75 57 64 71 80 83 93 96 96 95 90 68 74 70 68 67 62 62 60
36 42 44 51 88 83 65 64 63 63 64 60 60 52 48 57 68 56 57 58 57 64 66 69 84 96 76 64 59 64 72 76 78 82 89 94 84 64 67 71 65 65 59 59 58
42 77 46 47 53 68 64 63 68 60 58 55 57 52 54 58 53 59 60 62 58 62 64 66 78 80 87 68 68 75 67 69 77 98 87 85 74 53 58 70 65 63 61 59 57
39 63 57 86 61 53 55 58 58 67 62 56 57 57 57 59 53 60 46 68 63 67 66 78 88 84 80 76 74 75 73 67 81 75 82 64 70 57 53 62 54 46 50 56 53
48 52 44 56 53 55 61 64 57 54 58 60 63 53 49 57 53 54 50 47 56 80 72 75 86 77 84 68 68 78 69 68 63 58 68 63 63 43 41 40 41 42 47 52 48
42 42 52 62 59 66 66 49 54 51 50 52 55 55 55 54 55 51 51 49 53 67 74 78 85 82 89 70 76 70 59 52 55 55 53 64 51 42 43 42 40 42 46 45 42

GFSSW_850_rhum_132.txt.gz
RH
87 87 93 89 87 89 88 94 86 66 58 74 76 90 100 79 58 48 56 66 47 27 25 30 34 53 52 49 37 30 42 40 39 34 34 28 28 26 25 22 20 20 21 21 22
96 94 99 98 87 88 91 86 79 74 72 82 80 95 100 62 47 63 90 76 43 32 28 35 42 48 45 45 32 31 49 37 38 38 32 29 28 26 22 23 20 18 20 22 24
100 95 89 94 99 98 85 85 88 90 97 82 72 90 81 72 45 98 87 72 44 40 34 38 40 40 36 36 28 34 42 39 44 36 33 30 28 26 26 23 19 19 18 19 20
94 97 93 84 94 93 78 86 94 92 85 71 86 99 77 66 93 93 59 38 48 41 36 37 32 32 38 35 32 38 36 37 41 31 29 32 31 27 27 18 19 20 19 19 18
73 95 88 91 68 73 77 54 57 82 75 84 94 100 83 84 100 92 47 45 42 38 35 34 31 31 40 34 27 37 37 37 36 33 29 32 32 32 26 15 16 17 19 20 19
80 80 85 75 74 96 90 97 95 86 88 85 94 91 79 95 99 62 47 42 39 34 32 31 30 30 33 34 32 36 37 36 34 33 36 36 36 38 21 21 22 22 23 24 23
81 81 94 94 92 99 90 83 85 80 76 92 96 79 68 95 76 62 46 43 38 34 31 31 32 31 30 40 35 33 36 38 38 36 42 42 34 48 20 24 26 27 27 25 24
78 80 81 88 92 92 90 93 91 80 78 73 78 66 97 72 62 57 53 48 40 38 32 33 33 31 37 35 35 38 41 42 42 43 44 35 28 25 30 31 29 26 26 29 30
76 73 72 79 85 92 92 86 98 87 93 74 74 72 97 71 58 49 48 45 39 36 33 34 30 38 39 49 55 48 65 42 46 46 52 44 36 29 29 29 29 32 34 37 46
71 67 65 60 64 74 82 83 90 89 94 86 86 81 97 90 63 60 45 33 31 30 28 30 41 55 57 66 51 48 41 44 41 44 45 51 60 48 31 33 33 46 60 60 58
67 66 64 65 64 67 68 74 82 90 93 100 96 97 95 77 59 56 51 50 48 43 57 54 75 78 54 48 44 40 36 36 40 42 48 54 56 50 44 40 49 65 67 61 54
57 58 59 55 64 61 63 85 88 93 89 86 85 79 74 66 53 50 49 49 45 58 53 69 74 53 47 43 41 40 38 51 44 48 53 60 64 51 49 51 62 71 68 59 54
49 52 54 59 54 45 60 69 76 76 85 76 78 76 67 52 53 50 44 43 53 64 64 69 57 44 43 46 48 58 52 55 58 62 54 63 54 52 65 76 74 73 67 60 64
52 52 53 52 53 49 54 62 77 75 88 72 68 59 55 57 41 44 46 46 46 60 59 61 48 47 47 57 53 60 58 55 59 77 76 63 76 67 55 75 74 75 67 67 67
48 45 42 50 55 52 57 54 62 82 90 58 63 48 48 54 45 33 43 39 53 50 50 54 51 60 62 56 51 63 56 57 61 75 86 75 95 76 71 65 73 73 65 65 63
52 41 43 46 52 56 50 61 68 78 91 74 54 46 42 40 43 41 43 41 46 52 55 55 48 50 51 46 45 49 63 69 70 78 93 73 85 83 80 69 71 73 64 60 62
49 40 38 40 44 46 57 73 78 92 57 55 56 43 44 50 50 52 53 58 73 69 72 66 58 49 48 60 57 64 74 92 88 92 91 73 90 79 59 74 69 66 58 58 66
42 53 56 51 52 56 66 61 75 64 68 46 49 51 54 52 50 53 58 71 63 62 82 85 76 61 56 62 70 57 65 90 88 95 90 74 93 75 65 67 65 61 60 64 64
40 38 51 63 61 57 48 86 70 68 50 54 53 54 58 50 51 55 58 65 65 61 73 74 78 59 57 58 60 71 88 76 86 89 98 90 75 62 77 80 78 75 70 64 59
31 43 49 58 62 44 76 83 71 52 50 54 53 47 56 52 57 55 60 55 65 60 56 65 74 60 63 62 74 76 81 86 92 94 97 88 86 80 83 85 80 83 72 61 60
44 42 38 49 58 39 90 77 64 59 61 67 69 55 57 59 64 67 64 58 58 62 58 56 73 71 71 84 86 90 86 89 90 92 93 97 84 73 69 59 67 71 60 60 60
40 47 40 52 57 80 92 68 60 61 60 67 62 57 58 56 60 63 64 58 55 60 73 61 71 88 78 59 67 76 78 85 91 87 94 95 87 57 70 61 60 58 55 58 59
33 45 44 50 80 83 69 66 63 66 67 64 63 53 50 60 69 59 60 59 58 67 70 68 85 95 79 66 66 76 82 81 80 83 82 98 84 60 68 68 58 62 57 59 56
37 69 48 50 60 70 69 66 68 62 61 58 59 54 56 60 57 62 63 66 60 64 65 64 84 80 80 67 71 79 74 83 83 90 83 84 75 56 68 68 53 51 47 51 56
43 64 59 83 61 62 63 68 68 71 63 57 60 62 64 64 62 68 56 69 67 65 72 76 93 88 84 79 77 76 75 73 92 77 87 65 73 52 53 56 48 41 39 43 47
36 54 53 58 58 57 63 69 67 58 68 68 68 59 65 65 53 58 53 65 72 83 80 83 88 85 91 77 77 86 75 75 71 68 76 72 73 48 43 43 46 43 36 40 41
46 49 52 59 63 68 68 55 61 54 51 52 61 58 60 58 46 46 45 46 52 84 88 85 91 84 90 73 76 65 49 54 67 72 65 74 53 37 42 47 41 33 37 36 38

GFSSW_850_rhum_135.txt.gz
RH
98 85 84 98 88 89 91 91 61 58 97 95 58 61 67 84 68 62 72 70 43 30 30 34 44 58 56 46 34 29 45 41 39 37 34 29 28 26 25 23 21 21 23 26 26
87 90 98 97 92 86 93 99 97 95 97 77 65 67 84 71 66 65 95 87 50 26 34 36 50 54 50 38 29 33 49 38 39 37 32 30 27 27 22 21 20 21 24 26 25
94 93 86 92 90 83 88 76 83 97 68 74 75 93 96 75 62 97 96 66 53 34 33 42 49 48 41 32 30 37 41 42 45 37 31 30 27 27 25 21 18 18 20 21 21
89 85 95 84 87 96 80 84 75 70 80 81 87 94 96 72 88 99 56 46 41 36 39 39 38 34 39 37 32 39 39 38 39 31 27 30 29 25 27 19 20 19 20 20 20
98 93 86 97 93 76 89 99 98 94 97 94 97 87 87 91 98 82 51 47 42 39 39 32 30 30 38 33 28 37 39 39 37 31 31 30 30 32 25 18 17 18 18 18 21
91 92 95 92 94 93 92 100 96 85 93 93 87 95 89 94 68 53 46 41 38 35 34 30 29 27 33 38 33 39 38 38 36 36 37 37 34 34 23 26 25 24 24 25 25
83 84 87 88 86 90 86 89 100 100 99 100 99 85 78 82 60 49 43 38 34 32 30 31 30 30 31 39 35 35 39 37 38 38 46 42 24 42 25 26 27 27 27 26 27
72 72 84 87 80 86 97 83 85 93 99 88 88 81 87 63 56 50 44 39 36 31 30 32 31 30 35 34 37 38 41 36 41 42 46 30 26 22 28 30 29 26 24 26 28
64 73 68 82 80 88 84 91 90 77 80 84 79 73 80 56 48 47 44 40 36 32 32 32 28 38 36 47 49 48 48 37 44 45 51 43 37 28 34 32 29 27 28 34 37
62 70 80 73 79 82 81 85 83 79 75 67 67 59 67 71 56 43 37 35 35 34 31 29 35 55 60 57 49 39 36 44 42 45 46 51 60 48 34 36 32 34 43 56 59
55 58 66 69 69 68 63 72 86 90 90 99 94 86 78 61 50 48 36 32 29 34 59 52 72 76 54 49 44 39 38 38 43 45 52 59 61 50 42 45 45 54 69 65 56
51 51 56 59 64 62 58 70 91 94 94 77 74 65 59 54 46 49 45 40 44 64 51 66 72 54 50 43 42 40 38 49 46 47 55 61 66 49 56 61 56 68 68 60 56
46 42 42 49 50 54 62 65 63 60 88 75 64 59 58 46 47 46 43 45 55 64 62 68 56 47 44 55 54 64 56 58 59 61 58 68 55 42 68 78 76 70 65 59 54
39 39 37 42 46 46 49 59 73 59 86 75 59 50 46 50 39 43 43 43 47 63 59 60 47 48 54 60 55 58 59 56 58 76 63 63 66 56 57 78 77 70 64 58 57
37 38 39 38 45 46 50 58 68 74 90 54 54 41 42 48 42 37 40 40 52 53 42 46 55 59 60 55 52 58 56 59 62 77 86 74 91 67 68 68 74 73 63 57 58
38 38 37 39 42 45 46 64 60 76 78 68 49 43 41 43 45 42 44 40 49 58 58 58 49 50 50 47 48 52 64 70 79 80 84 65 82 80 78 60 63 67 61 57 57
50 54 50 47 46 52 62 66 77 84 55 47 50 51 50 56 54 55 60 63 71 66 73 66 61 51 50 60 56 59 69 77 68 90 72 73 91 79 59 60 66 63 56 52 54
38 48 60 62 58 60 56 61 70 64 68 44 50 52 56 52 51 54 60 74 64 65 84 79 74 62 56 61 65 63 68 80 57 91 92 79 94 76 59 64 58 63 58 55 53
29 44 50 64 69 65 40 85 68 64 53 58 56 57 56 51 52 58 62 70 68 63 71 79 76 61 59 60 61 70 87 73 80 92 93 92 76 64 67 78 74 70 64 56 52
37 40 44 56 59 45 74 84 73 54 51 53 52 48 57 55 57 59 64 57 68 61 58 68 76 62 63 64 74 72 77 85 92 95 97 88 87 78 72 63 72 77 66 52 48
29 36 41 52 48 34 84 75 64 59 60 66 67 61 56 63 66 69 67 58 64 64 60 62 72 68 73 83 85 90 89 89 87 88 90 94 83 73 66 60 58 63 54 49 44
25 43 37 49 54 81 92 69 59 59 60 66 64 60 61 60 65 69 67 60 56 59 72 65 79 91 81 63 68 76 83 87 91 83 95 87 84 58 66 61 54 48 44 43 46
30 41 42 45 76 83 71 67 66 67 66 67 66 57 52 62 69 62 62 59 59 68 72 69 84 92 71 70 76 83 83 80 78 87 83 93 84 53 70 72 58 55 46 47 48
30 64 41 49 60 71 70 66 68 64 64 63 62 56 58 62 58 63 64 66 63 66 65 63 84 76 62 60 74 89 80 86 82 95 85 81 76 52 54 66 62 52 39 41 40
36 62 54 78 62 67 64 68 69 68 65 61 61 65 64 69 64 68 62 71 70 68 75 76 93 92 87 82 79 79 77 84 94 79 82 49 64 47 50 53 45 37 41 42 38
35 48 56 60 62 59 64 68 70 62 66 70 71 59 68 66 64 59 62 70 70 83 83 85 88 88 93 81 84 90 78 76 72 77 82 75 72 46 41 44 47 47 48 45 32
46 49 50 63 66 68 66 56 61 58 52 51 62 62 66 65 53 46 46 49 52 86 90 92 95 87 90 76 77 62 57 66 72 75 61 73 54 41 46 42 42 36 35 35 36